EW0625 Weather Reports


time (UTC)temp
C
wind
direction
speed
KPH
gust
KPH
rain 1hr
cm
rain 24hr
cm
rain mn
cm
humidity
%
barometer
mb
20260503013531 3 303 0.0 0.0 0.00 0.00 0.00 74 1015.7
20260503013012 4 303 0.0 0.0 0.00 0.00 0.00 74 1015.7
20260503012535 4 303 0.0 0.0 0.00 0.00 0.00 70 1015.7
20260503012014 5 303 0.0 0.0 0.00 0.00 0.00 68 1015.7
20260503011547 5 303 0.0 0.0 0.00 0.00 0.00 70 1015.7
20260503011021 5 303 0.0 0.0 0.00 0.00 0.00 66 1015.7
20260503010559 6 303 0.0 0.0 0.00 0.00 0.00 59 1015.6
20260503010507 6 303 0.0 0.0 0.00 0.00 0.00 58 1015.6
20260503010048 6 303 0.0 0.0 0.00 0.00 0.00 56 1015.6
20260503005503 6 303 0.0 0.0 0.00 0.00 0.00 54 1015.6
20260503005036 6 303 0.0 0.0 0.00 0.00 0.00 53 1015.5
20260503004508 6 303 0.0 0.0 0.00 0.00 0.00 53 1015.4
20260503004039 7 303 0.0 3.2 0.00 0.00 0.00 53 1015.5
20260503003517 7 303 0.0 6.4 0.00 0.00 0.00 52 1015.4
20260503003055 7 303 0.0 6.4 0.00 0.00 0.00 52 1015.5
20260503002533 7 310 0.0 9.7 0.00 0.00 0.00 51 1015.5
20260503002015 7 311 0.0 9.7 0.00 0.00 0.00 52 1015.5
20260503001533 7 285 0.0 3.2 0.00 0.00 0.00 51 1015.4
20260503001011 7 304 0.0 4.8 0.00 0.00 0.00 49 1015.4
20260503000532 8 306 0.0 8.0 0.00 0.00 0.00 50 1015.3
20260503000051 8 310 1.6 9.7 0.00 0.00 0.00 50 1015.3
20260502235535 8 259 3.2 11.3 0.00 0.00 0.00 48 1015.3
20260502235047 8 315 0.0 12.9 0.00 0.00 0.00 48 1015.3
20260502234534 8 283 4.8 14.5 0.00 0.00 0.00 47 1015.3
20260502234057 8 318 3.2 14.5 0.00 0.00 0.00 48 1015.3
20260502233515 8 302 4.8 12.9 0.00 0.00 0.00 48 1015.3
20260502233051 8 259 4.8 11.3 0.00 0.00 0.00 48 1015.3
20260502232530 8 288 1.6 11.3 0.00 0.00 0.00 48 1015.3
20260502232017 8 317 4.8 14.5 0.00 0.00 0.00 48 1015.4
20260502231600 9 323 3.2 14.5 0.00 0.00 0.00 49 1015.4
20260502231007 9 318 4.8 11.3 0.00 0.00 0.00 49 1015.4
20260502230527 9 252 3.2 11.3 0.00 0.00 0.00 47 1015.3
20260502230011 9 304 1.6 9.7 0.00 0.00 0.00 47 1015.3
20260502225544 9 295 4.8 12.9 0.00 0.00 0.00 49 1015.4
20260502225019 9 253 0.0 12.9 0.00 0.00 0.00 49 1015.4
20260502224537 9 298 4.8 12.9 0.00 0.00 0.00 47 1015.4
20260502224015 9 288 6.4 12.9 0.00 0.00 0.00 49 1015.5
20260502223535 9 315 1.6 16.1 0.00 0.00 0.00 51 1015.5
20260502223017 8 294 3.2 16.1 0.00 0.00 0.00 50 1015.6
20260502222553 8 284 3.2 11.3 0.00 0.00 0.00 52 1015.6
20260502222012 8 282 1.6 11.3 0.00 0.00 0.00 52 1015.6
20260502221543 8 309 1.6 11.3 0.00 0.00 0.00 51 1015.6
20260502221003 8 315 0.0 14.5 0.00 0.00 0.00 53 1015.5
20260502220541 9 323 6.4 14.5 0.00 0.00 0.00 50 1015.5
20260502220012 9 323 3.2 17.7 0.00 0.00 0.00 51 1015.5
20260502215543 9 229 4.8 17.7 0.00 0.00 0.00 49 1015.6
20260502215022 8 279 1.6 16.1 0.00 0.00 0.00 52 1015.5
20260502214544 8 317 8.0 16.1 0.00 0.00 0.00 53 1015.6
20260502214022 8 286 0.0 17.7 0.00 0.00 0.00 54 1015.6
20260502213543 8 288 6.4 17.7 0.00 0.00 0.00 52 1015.6
20260502213019 8 248 1.6 16.1 0.00 0.00 0.00 50 1015.6
20260502212541 8 296 4.8 16.1 0.00 0.00 0.00 53 1015.6
20260502212019 8 291 0.0 11.3 0.00 0.00 0.00 56 1015.7
20260502211545 8 300 3.2 11.3 0.00 0.00 0.00 55 1015.7
20260502211026 8 291 0.0 8.0 0.00 0.00 0.00 56 1015.7
20260502210504 8 272 0.0 8.0 0.00 0.00 0.00 53 1015.8
20260502210044 7 316 1.6 11.3 0.00 0.00 0.00 55 1015.8
20260502205514 7 319 1.6 11.3 0.00 0.00 0.00 54 1015.8
20260502205044 7 275 4.8 11.3 0.00 0.00 0.00 53 1015.8
20260502204522 7 314 3.2 17.7 0.00 0.00 0.00 53 1015.9
20260502204006 7 317 1.6 11.3 0.00 0.00 0.00 54 1015.8
20260502203524 7 296 3.2 22.5 0.00 0.00 0.00 49 1015.9
20260502203007 8 306 6.4 22.5 0.00 0.00 0.00 50 1015.9
20260502202544 8 15 3.2 19.3 0.00 0.00 0.00 50 1015.9
20260502202056 8 327 4.8 16.1 0.00 0.00 0.00 52 1016.1
20260502201545 8 316 3.2 17.7 0.00 0.00 0.00 49 1016.1
20260502201012 8 323 6.4 17.7 0.00 0.00 0.00 51 1016.2
20260502200545 7 325 8.0 16.1 0.00 0.00 0.00 51 1016.2
20260502200100 7 291 6.4 14.5 0.00 0.00 0.00 51 1016.2
20260502200001 7 304 4.8 14.5 0.00 0.00 0.00 51 1016.2
20260502195538 7 9 4.8 14.5 0.00 0.00 0.00 50 1016.2
20260502195056 8 355 1.6 12.9 0.00 0.00 0.00 49 1016.3
20260502194538 8 299 4.8 12.9 0.00 0.00 0.00 53 1016.3
20260502194016 8 291 3.2 11.3 0.00 0.00 0.00 51 1016.4
20260502193538 8 318 0.0 12.9 0.00 0.00 0.00 54 1016.5
20260502193014 8 333 1.6 12.9 0.00 0.00 0.00 53 1016.4
20260502192537 8 336 3.2 11.3 0.00 0.00 0.00 52 1016.5
20260502192011 8 317 3.2 16.1 0.00 0.00 0.00 52 1016.5
20260502191529 8 320 4.8 16.1 0.00 0.00 0.00 53 1016.5
20260502191004 7 284 4.8 16.1 0.00 0.00 0.00 53 1016.6
20260502190524 7 266 3.2 14.5 0.00 0.00 0.00 52 1016.7
20260502190059 7 334 3.2 9.7 0.00 0.00 0.00 52 1016.8
20260502185540 7 317 3.2 12.9 0.00 0.00 0.00 52 1016.8
20260502185014 7 304 3.2 12.9 0.00 0.00 0.00 50 1016.8
20260502184557 7 331 4.8 17.7 0.00 0.00 0.00 51 1016.8
20260502184014 7 241 4.8 17.7 0.00 0.00 0.00 53 1016.8
20260502183550 7 309 6.4 11.3 0.00 0.00 0.00 52 1016.9
20260502183034 7 294 1.6 11.3 0.00 0.00 0.00 52 1016.9
20260502182515 7 273 3.2 12.9 0.00 0.00 0.00 54 1017.0
20260502182052 7 302 6.4 12.9 0.00 0.00 0.00 52 1017.0
20260502181600 7 319 3.2 9.7 0.00 0.00 0.00 52 1017.1
20260502181503 7 323 4.8 9.7 0.00 0.00 0.00 54 1017.1
20260502181038 7 328 1.6 9.7 0.00 0.00 0.00 56 1017.1
20260502180556 7 315 0.0 11.3 0.00 0.00 0.00 54 1017.1
20260502170505 6 306 3.2 9.7 0.00 0.00 0.00 57 1017.6
20260502164052 6 349 1.6 9.7 0.00 0.00 0.00 56 1017.7
20260502163514 6 312 0.0 12.9 0.00 0.00 0.00 57 1017.8
20260502163051 6 351 3.2 12.9 0.00 0.00 0.00 54 1017.8
20260502162531 6 305 1.6 9.7 0.00 0.00 0.00 61 1017.8
20260502162050 6 304 0.0 9.7 0.00 0.00 0.00 58 1017.8
20260502161524 6 300 0.0 20.9 0.00 0.00 0.00 56 1017.8
20260502161040 6 330 0.0 20.9 0.00 0.00 0.00 57 1017.9
20260502160518 6 5 4.8 12.9 0.00 0.00 0.00 57 1017.8
20260502152040 5 330 3.2 16.1 0.00 0.00 0.00 58 1017.7
20260502151518 5 339 4.8 16.1 0.00 0.00 0.00 57 1017.6
20260502151040 6 333 1.6 17.7 0.00 0.00 0.00 59 1017.6
20260502150556 6 344 4.8 17.7 0.00 0.00 0.00 61 1017.6
20260502130526 3 342 4.8 14.5 0.00 0.00 0.00 77 1017.8
20260502123541 2 348 6.4 9.7 0.00 0.00 0.00 79 1017.7
20260502123019 2 327 4.8 11.3 0.00 0.00 0.00 80 1017.7
20260502122559 2 340 3.2 11.3 0.00 0.00 0.00 79 1017.7
20260502122021 1 346 3.2 9.7 0.00 0.00 0.00 81 1017.6
20260502121558 1 331 1.6 8.0 0.00 0.00 0.00 82 1017.6
20260502121040 1 344 1.6 9.7 0.00 0.00 0.00 83 1017.5
20260502120556 1 349 4.8 9.7 0.00 0.00 0.00 82 1017.5
20260502115514 0 322 3.2 9.7 0.00 0.00 0.00 84 1017.4
20260502115033 0 322 0.0 9.7 0.00 0.00 0.00 85 1017.3
20260502114516 0 346 0.0 9.7 0.00 0.00 0.00 86 1017.3
20260502114052 0 360 1.6 9.7 0.00 0.00 0.00 86 1017.3
20260502113511 0 324 0.0 4.8 0.00 0.00 0.00 87 1017.2
20260502113032 0 323 0.0 4.8 0.00 0.00 0.00 87 1017.3
20260502112513 0 323 0.0 4.8 0.00 0.00 0.00 87 1017.1
20260502112051 0 324 0.0 4.8 0.00 0.00 0.00 87 1017.1
20260502111516 -1 323 0.0 4.8 0.00 0.00 0.00 87 1017.1
20260502111051 -1 323 0.0 0.0 0.00 0.00 0.00 87 1017.1
20260502110515 -1 323 0.0 0.0 0.00 0.00 0.00 87 1017.0
20260502110051 -1 323 0.0 0.0 0.00 0.00 0.00 87 1017.0
20260502105534 -1 323 0.0 0.0 0.00 0.00 0.00 87 1016.9
20260502105052 -1 323 0.0 0.0 0.00 0.00 0.00 86 1016.8
20260502104516 -1 323 0.0 0.0 0.00 0.00 0.00 86 1016.8
20260502104051 -1 323 0.0 0.0 0.00 0.00 0.00 87 1016.8
20260502103533 -1 323 0.0 0.0 0.00 0.00 0.00 86 1016.9
20260502103106 -1 323 0.0 0.0 0.00 0.00 0.00 86 1016.9
20260502102534 -1 323 0.0 0.0 0.00 0.00 0.00 86 1016.9
20260502102016 -1 323 0.0 0.0 0.00 0.00 0.00 86 1016.8
20260502101605 0 323 0.0 0.0 0.00 0.00 0.00 86 1016.8
20260502101015 0 323 0.0 0.0 0.00 0.00 0.00 86 1016.8
20260502100549 0 323 0.0 0.0 0.00 0.00 0.00 86 1016.8
20260502091507 0 315 0.0 0.0 0.00 0.03 0.00 86 1016.6
20260502091027 0 315 0.0 0.0 0.00 0.03 0.00 86 1016.6
20260502090505 0 315 0.0 6.4 0.00 0.03 0.00 85 1016.6
20260502071535 0 281 0.0 0.0 0.00 0.05 0.00 81 1016.2
20260502071013 0 280 0.0 0.0 0.00 0.05 0.00 81 1016.2
20260502070535 0 280 0.0 1.6 0.00 0.05 0.00 81 1016.2
20260502070022 0 280 0.0 6.4 0.00 0.20 0.00 80 1016.2
20260502065557 0 280 0.0 6.4 0.00 0.20 0.00 80 1016.1
20260502065024 0 300 0.0 4.8 0.00 0.20 0.00 80 1016.2
20260502064602 1 300 0.0 3.2 0.00 0.20 0.00 79 1016.2
20260502064021 1 300 0.0 3.2 0.00 0.20 0.00 79 1016.2
20260502063556 1 300 0.0 0.0 0.00 0.20 0.00 78 1016.3
20260502063042 1 300 0.0 8.0 0.00 0.20 0.00 77 1016.3
20260502062557 1 300 0.0 8.0 0.00 0.20 0.00 77 1016.4
20260502062039 1 308 0.0 4.8 0.00 0.20 0.00 77 1016.4
20260502061557 1 308 0.0 4.8 0.00 0.20 0.00 76 1016.4
20260502061037 1 293 0.0 9.7 0.00 0.20 0.00 76 1016.4
20260502060549 2 295 0.0 3.2 0.00 0.20 0.00 75 1016.5
20260502060031 2 308 0.0 4.8 0.00 0.25 0.00 75 1016.5
20260502055509 2 308 0.0 4.8 0.00 0.25 0.00 74 1016.5
20260502055032 2 308 0.0 6.4 0.00 0.25 0.00 74 1016.5
20260502054508 2 308 0.0 8.0 0.00 0.25 0.00 74 1016.6
20260502054030 2 309 1.6 8.0 0.00 0.25 0.00 74 1016.6
20260502053505 2 318 0.0 4.8 0.00 0.25 0.00 73 1016.6
20260502053033 2 319 0.0 6.4 0.00 0.25 0.00 73 1016.6
20260502052511 2 286 1.6 6.4 0.00 0.25 0.00 72 1016.6
20260502052050 2 284 1.6 8.0 0.00 0.25 0.00 73 1016.6
20260502051513 3 297 3.2 12.9 0.00 0.25 0.00 72 1016.6
20260502051046 3 288 3.2 12.9 0.00 0.25 0.00 72 1016.5
20260502050522 3 283 3.2 9.7 0.00 0.25 0.00 72 1016.5
20260502050045 3 312 0.0 11.3 0.00 0.36 0.00 72 1016.5
20260502045523 3 317 3.2 11.3 0.00 0.36 0.00 72 1016.4
20260502045045 3 302 1.6 9.7 0.00 0.36 0.00 72 1016.4
20260502044527 3 273 3.2 9.7 0.00 0.36 0.00 71 1016.4
20260502044004 3 308 1.6 19.3 0.00 0.36 0.00 72 1016.3
20260502043527 3 300 4.8 19.3 0.00 0.36 0.00 72 1016.4
20260502043108 3 298 1.6 8.0 0.00 0.36 0.00 72 1016.3
20260502043001 3 298 0.0 8.0 0.00 0.36 0.00 73 1016.3
20260502042524 3 317 1.6 8.0 0.00 0.36 0.00 73 1016.2
20260502042059 3 313 1.6 8.0 0.00 0.36 0.00 72 1016.0
20260502042003 3 313 0.0 8.0 0.00 0.36 0.00 72 1016.0
20260502041522 3 332 0.0 9.7 0.00 0.36 0.00 72 1016.0
20260502041058 3 341 3.2 9.7 0.00 0.36 0.00 72 1016.1
20260502040538 3 317 1.6 9.7 0.00 0.36 0.00 72 1016.0
20260502040016 3 316 0.0 8.0 0.00 0.51 0.36 73 1016.0
20260502035532 3 302 0.0 4.8 0.00 0.51 0.36 73 1015.9
20260502035008 3 301 0.0 6.4 0.00 0.51 0.36 74 1015.9
20260502034528 3 296 0.0 6.4 0.00 0.51 0.36 74 1015.9
20260502034006 3 299 0.0 12.9 0.00 0.51 0.36 74 1016.0
20260502033525 3 301 1.6 12.9 0.00 0.51 0.36 75 1016.0
20260502033056 3 288 1.6 9.7 0.00 0.51 0.36 76 1015.9
20260502032539 3 315 0.0 11.3 0.00 0.51 0.36 77 1016.0
20260502032019 3 258 0.0 6.4 0.00 0.51 0.36 77 1015.9
20260502031543 3 295 0.0 9.7 0.00 0.51 0.36 78 1015.8
20260502031022 3 302 1.6 9.7 0.00 0.51 0.36 80 1015.7
20260502030544 3 323 0.0 1.6 0.00 0.51 0.36 79 1015.7
20260502030026 2 323 0.0 0.0 0.00 0.56 0.36 79 1015.7
20260502025557 2 323 0.0 0.0 0.00 0.56 0.36 79 1015.7
20260502025502 2 323 0.0 0.0 0.00 0.56 0.36 79 1015.7
20260502025047 2 323 0.0 0.0 0.00 0.56 0.36 79 1015.7
20260502024511 2 323 0.0 0.0 0.00 0.56 0.36 78 1015.7
20260502024050 2 323 0.0 0.0 0.00 0.56 0.36 78 1015.7
20260502023508 3 323 0.0 0.0 0.00 0.56 0.36 78 1015.6
20260502023049 3 323 0.0 0.0 0.00 0.56 0.36 77 1015.6
20260502022529 3 323 0.0 0.0 0.00 0.56 0.36 77 1015.6
20260502022010 3 323 0.0 0.0 0.00 0.56 0.36 77 1015.6
20260502021529 3 323 0.0 0.0 0.00 0.56 0.36 76 1015.5
20260502021059 3 323 0.0 0.0 0.00 0.56 0.36 76 1015.5
20260502021004 3 323 0.0 0.0 0.00 0.56 0.36 76 1015.5
20260502020535 3 323 0.0 0.0 0.00 0.56 0.36 76 1015.5
20260502020007 3 323 0.0 0.0 0.00 0.64 0.36 76 1015.4
20260502015547 3 323 0.0 0.0 0.00 0.64 0.36 75 1015.3
20260502015022 3 323 0.0 0.0 0.00 0.64 0.36 75 1015.2
20260502014556 4 323 0.0 4.8 0.00 0.64 0.36 74 1015.2
20260502014036 4 323 0.0 8.0 0.00 0.64 0.36 73 1015.1